Bellaire, MI

4:12 PM EDT on August 27, 2016 (GMT -0400)
Antrim County

Weather History for KACB - January, 2014

Change the Weather History Date:

Sunday, January 5, 2014

  Actual Average (KTVC) Record (KTVC)
Temperature  
Mean Temperature 18 °F 22 °F  
Max Temperature 22 °F 28 °F 49 °F (1946)
Min Temperature 13 °F 16 °F -11 °F (1972)
Degree Days  
Heating Degree Days 47 43  
Month to date heating degree days 212  
Since 1 July heating degree days 3020  
Moisture  
Dew Point 12 °F    
Average Humidity 75    
Maximum Humidity 85    
Minimum Humidity 61    
Precipitation  
Precipitation 0.00 in 0.10 in 0.68 in (1998)
Month to date precipitation 0.48  
Year to date precipitation 0.48  
Sea Level Pressure  
Sea Level Pressure 30.01 in    
Wind  
Wind Speed 4 mph (North)    
Max Wind Speed 12 mph    
Max Gust Speed 18 mph    
Visibility 9 miles    
Events Snow    
T = Trace of Precipitation, MM = Missing Value Source: NWS Daily Summary

Daily Weather History Graph

Daily Weather History Graph

Search for Another Location

Airport or City:

Trip Planner

Search our weather history database for the weather conditions in past years. The results will help you decide how hot, cold, wet, or windy it might be!

Date:

Astronomy

Jan. 05, 2014 Rise Set
Actual Time 8:18 AM EST 5:13 PM EST
Civil Twilight 7:45 AM EST 5:47 PM EST
Nautical Twilight 7:08 AM EST 6:24 PM EST
Astronomical Twilight 6:33 AM EST 6:59 PM EST
Moon 10:46 AM EST (1/5) 10:56 PM EST (1/5)
Length of Visible Light 10h 01m
Length of Day
8h 55m
Waxing Crescent, 24% of the Moon is Illuminated
Jan 5
Waxing Crescent
Jan 7
First Quarter
Jan 15
Full
Jan 24
Last Quarter
Jan 30
New

Hourly Weather History & Observations

Time (EST) Temp. Windchill Dew Point Humidity Pressure Visibility Wind Dir Wind Speed Gust Speed Precip Events Conditions
12:13 AM 23.4 °F 17.4 °F 16.7 °F 76% 30.01 in 10.0 mi NW 4.6 mph - N/A   Overcast
12:34 AM 23.0 °F 18.4 °F 15.4 °F 73% 30.01 in 10.0 mi North 3.5 mph - N/A   Overcast
12:53 AM 22.6 °F 18.0 °F 15.4 °F 74% 30.03 in 10.0 mi North 3.5 mph - N/A   Overcast
1:13 AM 22.6 °F 18.0 °F 15.3 °F 73% 30.02 in 10.0 mi NNE 3.5 mph - N/A   Overcast
1:34 AM 22.5 °F - 14.9 °F 73% 30.02 in 10.0 mi Calm Calm - N/A   Overcast
1:53 AM 22.3 °F - 15.1 °F 74% 30.03 in 10.0 mi Calm Calm - N/A   Overcast
2:14 AM 22.1 °F - 14.9 °F 74% 30.04 in 10.0 mi Calm Calm - N/A   Overcast
2:33 AM 22.1 °F - 14.9 °F 74% 30.05 in 10.0 mi Calm Calm - N/A   Overcast
2:53 AM 22.1 °F - 14.7 °F 73% 30.06 in 10.0 mi Calm Calm - N/A   Overcast
3:14 AM 22.1 °F - 14.9 °F 74% 30.07 in 10.0 mi Calm Calm - N/A   Overcast
3:33 AM 21.7 °F - 15.4 °F 77% 30.08 in 10.0 mi Calm Calm - N/A   Overcast
3:53 AM 21.9 °F - 15.3 °F 76% 30.07 in 10.0 mi Calm Calm - N/A   Overcast
4:14 AM 21.4 °F - 15.6 °F 78% 30.07 in 10.0 mi Calm Calm - N/A   Overcast
4:33 AM 21.6 °F - 15.6 °F 78% 30.06 in 10.0 mi Calm Calm - N/A   Overcast
4:53 AM 21.0 °F - 15.6 °F 80% 30.07 in 10.0 mi Calm Calm - N/A   Overcast
5:14 AM 20.8 °F - 15.6 °F 80% 30.07 in 10.0 mi Calm Calm - N/A   Overcast
5:33 AM 21.0 °F - 16.2 °F 81% 30.07 in 10.0 mi Calm Calm - N/A   Overcast
5:53 AM 20.8 °F - 15.8 °F 81% 30.06 in 10.0 mi Calm Calm - N/A   Overcast
6:14 AM 20.3 °F - 16.5 °F 85% 30.06 in 10.0 mi Calm Calm - N/A   Overcast
6:33 AM 20.3 °F - 15.8 °F 83% 30.06 in 10.0 mi Calm Calm - N/A   Overcast
6:53 AM 20.8 °F - 16.5 °F 83% 30.07 in 10.0 mi Calm Calm - N/A   Overcast
7:14 AM 21.0 °F - 16.0 °F 81% 30.06 in 10.0 mi Calm Calm - N/A   Overcast
7:33 AM 21.2 °F - 14.9 °F 77% 30.06 in 10.0 mi Calm Calm - N/A   Overcast
7:53 AM 21.2 °F - 14.9 °F 77% 30.08 in 10.0 mi Calm Calm - N/A   Overcast
8:14 AM 21.2 °F 16.4 °F 14.9 °F 77% 30.08 in 10.0 mi NNE 3.5 mph - N/A   Overcast
8:33 AM 21.2 °F 16.4 °F 14.9 °F 77% 30.09 in 10.0 mi NNE 3.5 mph - N/A   Overcast
8:53 AM 21.2 °F 16.4 °F 14.9 °F 77% 30.10 in 10.0 mi North 3.5 mph - N/A   Overcast
9:14 AM 21.2 °F 13.6 °F 15.1 °F 77% 30.10 in 10.0 mi North 5.8 mph - N/A Snow Light Snow
9:33 AM 21.2 °F 13.6 °F 14.9 °F 77% 30.10 in 10.0 mi North 5.8 mph - N/A Snow Light Snow
9:53 AM 20.8 °F 12.1 °F 14.4 °F 76% 30.09 in 10.0 mi North 6.9 mph - N/A Snow Light Snow
10:14 AM 20.8 °F 13.2 °F 14.5 °F 77% 30.08 in 7.0 mi North 5.8 mph - N/A Snow Light Snow
10:33 AM 20.7 °F 11.9 °F 14.0 °F 75% 30.10 in 10.0 mi North 6.9 mph - N/A Snow Light Snow
10:53 AM 20.5 °F 12.8 °F 13.5 °F 74% 30.10 in 10.0 mi North 5.8 mph - N/A Snow Light Snow
11:14 AM 20.3 °F 11.5 °F 13.6 °F 75% 30.10 in 10.0 mi NNE 6.9 mph - N/A Snow Light Snow
11:33 AM 20.3 °F 12.5 °F 13.5 °F 75% 30.10 in 10.0 mi North 5.8 mph - N/A Snow Light Snow
11:54 AM 20.3 °F 13.8 °F 13.1 °F 74% 30.08 in 10.0 mi North 4.6 mph - N/A Snow Light Snow
12:13 PM 19.9 °F 10.1 °F 13.1 °F 75% 30.06 in 10.0 mi NNE 8.1 mph - N/A Snow Light Snow
12:33 PM 19.4 °F 9.5 °F 12.2 °F 74% 30.06 in 10.0 mi NNE 8.1 mph - N/A   Overcast
12:54 PM 19.4 °F 11.5 °F 11.7 °F 72% 30.05 in 10.0 mi NNE 5.8 mph - N/A   Overcast
1:13 PM 19.2 °F 10.2 °F 11.3 °F 71% 30.05 in 10.0 mi NNE 6.9 mph - N/A   Overcast
1:33 PM 19.0 °F 9.0 °F 10.9 °F 71% 30.02 in 10.0 mi NNE 8.1 mph - N/A   Overcast
1:54 PM 19.4 °F 12.8 °F 10.9 °F 70% 30.02 in 10.0 mi NNE 4.6 mph - N/A   Overcast
2:14 PM 19.4 °F 11.5 °F 10.4 °F 68% 30.02 in 10.0 mi North 5.8 mph - N/A   Overcast
2:33 PM 19.0 °F 8.2 °F 10.2 °F 69% 30.01 in 10.0 mi NNE 9.2 mph - N/A   Overcast
2:54 PM 19.2 °F 11.3 °F 8.8 °F 64% 30.02 in 10.0 mi NNW 5.8 mph - N/A   Overcast
3:14 PM 19.2 °F 10.2 °F 8.1 °F 62% 30.00 in 10.0 mi North 6.9 mph - N/A   Overcast
3:33 PM 19.0 °F 11.1 °F 7.9 °F 62% 29.99 in 10.0 mi North 5.8 mph - N/A   Overcast
3:54 PM 19.0 °F 10.0 °F 7.7 °F 61% 30.01 in 10.0 mi North 6.9 mph - N/A   Overcast
4:13 PM 18.9 °F 12.1 °F 7.9 °F 62% 30.01 in 10.0 mi North 4.6 mph - N/A   Overcast
4:33 PM 18.5 °F 11.7 °F 7.5 °F 62% 29.99 in 10.0 mi North 4.6 mph - N/A   Overcast
4:54 PM 18.3 °F 10.2 °F 7.7 °F 63% 29.98 in 10.0 mi North 5.8 mph - N/A   Overcast
5:13 PM 18.1 °F 12.9 °F 7.7 °F 64% 29.99 in 10.0 mi North 3.5 mph - N/A   Overcast
5:33 PM 18.1 °F 11.3 °F 8.6 °F 66% 29.96 in 10.0 mi North 4.6 mph - N/A   Overcast
5:54 PM 17.8 °F 7.5 °F 9.3 °F 69% 29.94 in 10.0 mi North 8.1 mph - N/A   Overcast
6:13 PM 17.6 °F 5.7 °F 9.7 °F 71% 29.95 in 10.0 mi NNE 10.4 mph - N/A   Overcast
6:33 PM 17.6 °F 6.4 °F 10.4 °F 73% 29.94 in 10.0 mi North 9.2 mph - N/A   Overcast
6:54 PM 16.9 °F 6.4 °F 9.5 °F 73% 29.95 in 10.0 mi North 8.1 mph - N/A   Overcast
7:13 PM 16.3 °F 4.9 °F 9.1 °F 73% 29.95 in 10.0 mi North 9.2 mph 17.3 mph N/A   Overcast
7:34 PM 15.8 °F 2.7 °F 8.6 °F 73% 29.93 in 10.0 mi North 11.5 mph 17.3 mph N/A   Overcast
7:53 PM 15.4 °F 3.0 °F 8.6 °F 74% 29.93 in 10.0 mi North 10.4 mph - N/A   Overcast
8:13 PM 14.7 °F 2.1 °F 8.2 °F 75% 29.92 in 5.0 mi North 10.4 mph 16.1 mph N/A Snow Light Snow
8:34 PM 13.8 °F 1.0 °F 9.0 °F 81% 29.91 in 2.0 mi North 10.4 mph 17.3 mph N/A Snow Light Snow
8:53 PM 13.5 °F 0.5 °F 8.6 °F 81% 29.90 in 2.0 mi North 10.4 mph 16.1 mph N/A Snow Light Snow
9:13 PM 13.1 °F 1.8 °F 8.2 °F 81% 29.90 in 2.5 mi North 8.1 mph 17.3 mph N/A Snow Light Snow
9:34 PM 13.1 °F 2.8 °F 8.6 °F 82% 29.89 in 2.0 mi North 6.9 mph - N/A Snow Light Snow
9:53 PM 13.1 °F 2.8 °F 9.1 °F 84% 29.88 in 2.5 mi North 6.9 mph - N/A Snow Light Snow
10:13 PM 13.1 °F 4.0 °F 8.6 °F 82% 29.87 in 3.0 mi North 5.8 mph - N/A Snow Light Snow
10:34 PM 13.1 °F 2.8 °F 8.4 °F 82% 29.86 in 3.0 mi North 6.9 mph 16.1 mph N/A Snow Light Snow
10:53 PM 13.1 °F 0.9 °F 8.1 °F 80% 29.85 in 4.0 mi North 9.2 mph 16.1 mph N/A Snow Light Snow
11:13 PM 13.1 °F 1.8 °F 7.5 °F 78% 29.83 in 4.0 mi North 8.1 mph 18.4 mph N/A Snow Light Snow
11:34 PM 13.1 °F 1.8 °F 7.7 °F 79% 29.82 in 3.0 mi North 8.1 mph - N/A Snow Light Snow
11:53 PM 13.1 °F 2.8 °F 8.6 °F 82% 29.81 in 2.5 mi North 6.9 mph - N/A Snow Light Snow